Location: Fairmont
(43.6520°N, 94.4610°W)
Time: 01:17:42
(UTC-05:00)

Cosmos-2242 - Visible Passes

Search period start: 25 July 2016 00:00
Search period end: 04 August 2016 00:00
Orbit: 591 x 620 km, 82.5° (Epoch: 24 July)

Date Brightness Start Highest point End Pass type
(mag) Time Alt. Az. Time Alt. Az. Time Alt. Az.
25 Jul 5.3 03:50:31 10° SE 03:53:47 21° E 03:57:02 10° NE visible
25 Jul 3.9 05:27:13 10° SW 05:31:09 33° WNW 05:35:04 10° N visible
26 Jul 4.4 04:02:53 10° SSE 04:06:47 34° E 04:10:42 10° NNE visible
27 Jul 3.5 04:16:24 15° S 04:19:50 59° E 04:24:05 10° NNE visible
28 Jul 2.9 04:29:53 19° SSW 04:32:58 81° W 04:37:17 10° N visible
29 Jul 5.6 03:06:31 10° ESE 03:09:00 15° E 03:11:28 10° NE visible
29 Jul 3.4 04:43:21 19° SW 04:46:09 47° WNW 04:50:19 10° N visible
30 Jul 4.9 03:19:53 17° SE 03:21:57 24° E 03:25:26 10° NE visible
30 Jul 4.1 04:56:47 16° SW 04:59:25 28° WNW 05:03:09 10° NNW visible
31 Jul 4.0 03:33:18 28° SE 03:34:58 40° E 03:38:59 10° NNE visible
31 Jul 4.7 05:10:11 12° WSW 05:12:44 18° WNW 05:15:42 10° NNW visible
01 Aug 3.1 03:46:41 42° SSE 03:48:02 70° E 03:52:19 10° NNE visible
01 Aug 5.2 05:24:52 10° W 05:26:09 11° WNW 05:27:25 10° NW visible
02 Aug 5.7 02:23:26 10° E 02:24:14 10° E 02:25:01 10° ENE visible
02 Aug 2.9 04:00:03 46° SW 04:01:11 68° W 04:05:27 10° N visible
03 Aug 5.2 02:36:30 17° E 02:37:08 18° E 02:39:59 10° NE visible
03 Aug 3.6 04:13:23 34° WSW 04:14:23 40° WNW 04:18:26 10° N visible
